Regional Weather Roundup
Issued by NWS Grand Forks, ND

Home | Current Version | Previous Version | Graphics & Text | Print | Product List | Glossary On
Versions: 1 2 3 4 5 6 7 8 9 10 11 12 13 14 15 16 17 18 19 20 21 22 23 24 25 26 27 28 29 30 31 32 33 34 35 36 37 38 39 40 41 42 43 44 45 46 47 48 49 50
839
ASUS43 KFGF 270131
RWRFGF
PRAIRIE TO PINES  WEATHER ROUNDUP
NATIONAL WEATHER SERVICE EASTERN NORTH DAKOTA/GRAND FORKS ND
800 PM CDT FRI MAY 26 2017

 **SATELLITE DATA USED TO AUGMENT SKY COVER AT AUTOMATED STATIONS**
 *****  WEATHER ACROSS EASTERN NORTH DAKOTA  *****

CITY           SKY/WX    TMP DP  RH WIND       PRES   REMARKS
GRAND FORKS    FAIR      68  45  43 W16       29.72R
GRAND FRKS AFB FAIR      65  42  43 W15       29.73R
DEVILS LAKE    FAIR      63  42  46 W16       29.75S
FARGO          FAIR      67  43  41 W16G22    29.75S
WAHPETON ARPT  FAIR      63  41  45 W10       29.79R
$$

 ***** WEATHER ACROSS CENTRAL AND WESTERN NORTH DAKOTA  *****

CITY           SKY/WX    TMP DP  RH WIND       PRES   REMARKS
BISMARCK       FAIR      68  36  30 NW7       29.80S
MINOT          PTSUNNY   67  33  28 W14       29.74R
JAMESTOWN      FAIR      63  42  46 W13       29.78R
MINOT AFB      FAIR      66  35  30 NW13      29.73R
GARRISON         N/A     66  33  29 NW17      29.76S
WILLISTON      FAIR      68  34  28 NW15G24   29.79R
DICKINSON      FAIR      62  32  32 W8        29.83R
HETTINGER      PTSUNNY   64  32  30 W16       29.88R
$$

 *****  OTHER AIRPORT OBSERVATIONS IN OUR AREA  *****

CITY           SKY/WX    TMP DP  RH WIND       PRES   REMARKS
WALHALLA       NOT AVBL
GRAFTON AIRPOR FAIR      64  45  48 W14       29.73S
VALLEY CITY AR FAIR      63  43  48 W10G18    29.80R
CANDO          NOT AVBL
CAVALIER APRT  CLOUDY    66  43  42 W14       29.69S
GWINNER        CLEAR     66  43  42 MISG      29.80R
SHEYENNE NWR     N/A     65  43  44 W8        29.95S
ROLLA          FAIR      61  41  48 W13G18    29.73R
 ***** THE ABOVE OBSERVATIONS ARE NON NWS ARE NOT QUALITY
       CONTROLLED AND MAY MIS-REPORT RAIN FOR SNOW...
$$

  *****  WEATHER ACROSS NORTHERN MINNESOTA  *****

CITY           SKY/WX    TMP DP  RH WIND       PRES   REMARKS
FLAG ISLAND    FAIR      64  43  45 SW10      29.66R
WARROAD        FAIR      64  48  55 W12       29.70R
ROSEAU         FAIR      64  46  52 W6        29.70R
HALLOCK        FAIR      66  43  42 W20       29.69R
THF RVR FALLS  FAIR      65  44  46 W15G24    29.73R
BAUDETTE       FAIR      65  44  46 SW8       29.69R HAZE
WASKISH        FAIR      63  52  67 W9        29.72R
CROOKSTON      FAIR      66  45  45 W15       29.73S
STEPHEN NDAWN    N/A     66  43  42 W13         N/A
GREENBUSH NDAW   N/A     64  45  48 W12         N/A
$$
  *****  WEATHER ACROSS CENTRAL AND WEST MINNESOTA  *****

CITY           SKY/WX    TMP DP  RH WIND       PRES   REMARKS
FOSSTON        FAIR      64  39  39 W7        29.75S
BEMIDJI        FAIR      64  42  45 W14G21    29.74R
PARK RAPIDS    LGT RAIN  66  41  40 W14       29.74R
ELBOW LAKE     FAIR      64  44  48 NW10      29.79R
WADENA         FAIR      64  45  48 W7        29.77R
DETROIT LAKES  FAIR      63  41  45 W8G22     29.78S
MOORHEAD       FAIR      66  41  39 W12       29.77S
FERGUS FALLS   FAIR      63  45  51 NW14      29.76R
MORRIS MN      FAIR      66  46  48 NW8       29.79R
STAPLES        FAIR      64  41  42 W12       29.77R
$$
  *****  WEATHER ELSEWHERE ACROSS MINNESOTA  *****

CITY           SKY/WX    TMP DP  RH WIND       PRES   REMARKS
DULUTH         FAIR      59  51  75 E9        29.72R
INTRNTL FALLS  MOCLDY    69  43  38 W7        29.68R
ELY            CLOUDY    59  54  82 SE9       29.72R
CLOQUET        FAIR      57  50  77 SE5       29.73R
WHEATON        FAIR      66  41  39 W10G17    29.81R
BRAINERD       FAIR      70  43  37 W9        29.74R
HIBBING        FAIR      69  43  38 W7        29.70R
ALEXANDRIA     FAIR      66  43  43 W12       29.79R
SAINT CLOUD    FAIR      69  48  47 W9        29.75R
MINNEAPOLIS    FAIR      75  48  38 W13       29.74R
$$

  *****  WEATHER ACROSS SOUTH DAKOTA  *****

CITY           SKY/WX    TMP DP  RH WIND       PRES   REMARKS
SIOUX FALLS    FAIR      69  43  38 NW8       29.83R
BROOKINGS      FAIR      67  44  43 NW9       29.83R
WATERTOWN      FAIR      64  43  46 NW9       29.81R
HURON          FAIR      65  44  46 NW7       29.83R
SISSETON         N/A     66  44  45 NW13      29.79R
ABERDEEN       FAIR      67  39  35 NW7       29.82R
MITCHELL       FAIR      70  41  34 N9        29.83R
PIERRE         PTSUNNY   67  37  33 NW12      29.85R
MOBRIDGE       FAIR      67  39  35 NW7       29.82R
RAPID CITY     LGT RAIN  56  46  69 SW6       29.94R
$$

  *****  SOME WEATHER IN NEARBY STATES *****

CITY           SKY/WX    TMP DP  RH WIND       PRES   REMARKS
GLASGOW MT     CLOUDY    55  42  61 W13G22    29.87R
GREAT FALLS MT CLOUDY    58  40  51 SW7       29.92R
CHEYENNE WY    LGT RAIN  46  44  93 NE10      29.94F
SCOTTSBLUFF NE RAIN      54  50  86 N15       29.93R FOG
OMAHA NE       FAIR      78  50  37 NE6       29.81R
DES MOINES IA  FAIR      80  58  46 CALM      29.78R
DAVENPORT IA   CLOUDY    64  59  83 NE8       29.82R
CHICAGO IL     LGT RAIN  56  53  90 NE9       29.83S
EAU CLAIRE WI  FAIR      71  55  56 S9        29.76R
LA CROSSE WI   FAIR      69  58  67 S10       29.79S
$$

  *****  SOME NATIONAL WEATHER *****

CITY           SKY/WX    TMP DP  RH WIND       PRES   REMARKS
LA GUARDIA NY  FAIR      70  52  52 NW18G24   29.72R
RALEIGH NC     FAIR      72  56  57 W3        29.92R
ATLANTA GA     FAIR      77  60  55 SW7       29.99S
NEW ORLEANS LA FAIR      79  71  76 S8        29.98S
OKLAHOMA CITY  FAIR      82  68  62 E7        29.76R
ALBUQUERQUE NM FAIR      84   5   5 W23G29    29.89S
SALT LAKE CITY PTSUNNY   67  31  26 NW17      29.94R
LOS ANGELES CA FAIR      65  53  65 W16       29.98S
BOISE ID       FAIR      72  36  26 NW15G22   29.92R
SEATTLE WA     FAIR      79  43  27 N10       29.96S
$$

*** WEATHER ACROSS MANITOBA...SASKATCHEWAN AND ONTARIO ***
                ***ONTARIO***

CITY           SKY/WX    TMP DP  RH WIND       PRES   REMARKS
GERALDTON      MOCLDY    64  48  55 S3        29.78S
THUNDER BAY    MOCLDY    55  48  76 NE6       29.78S
SIOUX LOOKOUT  MOCLDY    57  54  88 S7        29.68R
TORONTO        MOCLDY    59  55  88 NW9       29.83S
BIG TROUT LK     N/A     57  48  72 S3        29.64S
PICKLE LAKE    CLOUDY    61  52  72 S9        29.68S
DRYDEN         CLEAR     61  55  82 SE12      29.66R
KENORA         MOCLDY    64  45  48 SW12G17   29.66R
$$
                *** MANITOBA***

CITY           SKY/WX    TMP DP  RH WIND       PRES   REMARKS
BRANDON        PTSUNNY   61  45  55 W13       29.68R
DAUPHIN        CLOUDY    61  46  59 W17       29.61R
ISLAND LAKE    NOT AVBL
PILOT MOUND      N/A     61  43  51 W8          N/A
THE PAS        CLOUDY    54  50  87 NW9       29.52R
THOMPSON       MOSUNNY   57  54  88 NE6       29.48R
WINNIPEG       PTSUNNY   63  50  63 SW5       29.64R
LYNN LAKE      LGT RAIN  52  50  93 N9        29.56S
CHURCHILL      CLOUDY    36  34  93 NE13      29.71S
GILLAM         DRIZZLE   61  52  72 E6        29.53R
$$
                ***SASKATCHEWAN***

CITY           SKY/WX    TMP DP  RH WIND       PRES   REMARKS
ESTEVAN        PTSUNNY   64  36  34 W21G28    29.74R
KINDERSLEY     PTSUNNY   59  45  58 N7        29.76R
LLOYDMINSTER   MOSUNNY   66  37  34 N10       29.72R
PRINCE ALBERT  PTSUNNY   61  37  41 N16G23    29.66R
REGINA         MOSUNNY   64  32  29 NW21G26   29.70R
YORKTON          N/A     57  45  62 W13G20    29.66R
N. BATTLEFORD  MOSUNNY   64  36  34 NW13G18   29.71R
LA RONGE       LGT RAIN  52  50  93 NW10      29.65R
SASKATOON      MOSUNNY   64  34  32 N17G23    29.69R
SWIFT CURRENT  PTSUNNY   52  45  76 SW12      29.82R
$$
NOTE: THESE ARE AUTOMATED STATIONS WITH LIMITED QUALITY CONTROL
      "FAIR" INDICATES FEW OR NO CLOUDS BELOW 12,000 FEET WITH NO
      SIGNIFICANT WEATHER AND/OR OBSTRUCTIONS TO VISIBILITY.
      SKY/WX - SKY CONDITION AND SIGNIFICANT WEATHER.
      TMP - AIR TEMPERATURE.    DP   - DEWPOINT TEMPERATURE.
      RH  - RELATIVE HUMIDITY.  PRES - PRESSURE.
      HX  - HEAT INDEX.         WCI  - WIND CHILL INDEX.
$




USA.gov is the U.S. government's official web portal to all federal, state and local government web resources and services.